Location: New Plymouth
(39.0670°S, 174.0830°E)
Time: 14:38:31
(UTC+13:00)

ISS - Pass Details

Date: 30 January 2019
Orbit: 403 x 411 km, 51.6° (Epoch: 17 February)

Event Time Altitude Azimuth Distance (km) Brightness Sun altitude
Exits shadow 05:25:54 20° 309° (NW) 1,021 -2.5 -11.9°
Maximum altitude 05:28:05 89° 3° (N) 421 -3.8 -11.5°
Drops below altitude 10° 05:31:27 10° 128° (SE) 1,496 0.6 -11.0°
Sets 05:33:33 0° 128° (SE) 2,362 2.3 -10.7°
